Tracking 19176 objects as of 27-May-2018
HD Live streaming from Space Station
objects crossing your sky now

SHARC

Track SHARC now!
10-day predictions


NORAD ID: 42712
Int'l Code: 1998-067LT
Perigee: 382.5 km
Apogee: 387.5 km
Inclination: 51.6 °
Period: 92.1 minutes
Semi major axis: 6755 km
RCS: Unknown
Launch date: November 20, 1998
Source: United States (US)
Launch site: TYURATAM MISSILE AND SPACE COMPLEX (TTMTR)
aabbcc
Your satellite tracking list
Your tracking list is empty




NASA's NSSDC Master Catalog

Two Line Element Set (TLE):
1 42712U 98067LT  18146.91602165 +.00017340 +00000-0 +18972-3 0  9991
2 42712 051.6370 112.7645 0003684 090.3090 269.8326 15.63397861058365
Source of the keplerian elements: AFSPC